Estherville, IA

5:46 PM CST on February 19, 2017 (GMT -0600)
Estherville Municipal

Weather History for KEST - June, 2012

Change the Weather History Date:

Saturday, June 23, 2012

  Actual Average Record
Temperature  
Mean Temperature 70 °F 70 °F  
Max Temperature 79 °F 82 °F 94 °F (1950)
Min Temperature 61 °F 59 °F 46 °F (1972)
Degree Days  
Heating Degree Days 0 1  
Month to date heating degree days 18 40  
Since 1 June heating degree days 18 40  
Since 1 July heating degree days 6191 7738  
Cooling Degree Days 5 6  
Month to date cooling degree days 140 91  
Year to date cooling degree days 229 127  
Since 1 June cooling degree days 140 91  
Growing Degree Days 20 (Base 50)    
Moisture  
Dew Point 62 °F    
Average Humidity 79    
Maximum Humidity 93    
Minimum Humidity 64    
Precipitation  
Precipitation 0.06 in 0.17 in 2.03 in (1984)
Month to date precipitation 3.10 3.44  
Year to date precipitation 15.47  
Sea Level Pressure  
Sea Level Pressure 29.91 in    
Wind  
Wind Speed 10 mph (South)    
Max Wind Speed 20 mph    
Max Gust Speed 24 mph    
Visibility 10 miles    
Events Rain    
T = Trace of Precipitation, MM = Missing Value Source: NWS Daily Summary

Daily Weather History Graph

Daily Weather History Graph

Search for Another Location

Airport or City:

Trip Planner

Search our weather history database for the weather conditions in past years. The results will help you decide how hot, cold, wet, or windy it might be!

Date:

Astronomy

Jun. 23, 2012 Rise Set
Actual Time 5:39 AM CDT 9:03 PM CDT
Civil Twilight 5:03 AM CDT 9:39 PM CDT
Nautical Twilight 4:16 AM CDT 10:26 PM CDT
Astronomical Twilight 3:17 AM CDT 11:24 PM CDT
Moon 9:49 AM CDT (6/23) 11:24 PM CDT (6/23)
Length of Visible Light 16h 36m
Length of Day
15h 24m
Waxing Crescent, 16% of the Moon is Illuminated
Jun 23
Waxing Crescent
Jun 26
First Quarter
Jul 3
Full
Jul 10
Last Quarter
Jul 18
New

Hourly Weather History & Observations

Time (CDT) Temp. Dew Point Humidity Pressure Visibility Wind Dir Wind Speed Gust Speed Precip Events Conditions
12:52 AM 64.9 °F 59.0 °F 81% 29.95 in 10.0 mi SSW 6.9 mph - N/A   Clear
1:52 AM 63.0 °F 59.0 °F 87% 29.94 in 10.0 mi SSE 5.8 mph - N/A   Clear
2:52 AM 63.0 °F 59.0 °F 87% 29.91 in 10.0 mi South 3.5 mph - N/A   Clear
3:52 AM 63.0 °F 59.0 °F 87% 29.88 in 10.0 mi SE 6.9 mph - N/A   Clear
4:52 AM 63.0 °F 59.0 °F 87% 29.94 in 10.0 mi South 8.1 mph - N/A   Clear
5:52 AM 64.0 °F 59.0 °F 84% 29.92 in 10.0 mi South 10.4 mph - N/A   Clear
8:52 AM 64.0 °F 59.0 °F 84% 29.93 in 9.0 mi SSE 12.7 mph - 0.03 in Rain Light Rain
9:52 AM 64.0 °F 60.1 °F 87% 29.89 in 10.0 mi SSE 15.0 mph - 0.01 in Rain Light Rain
10:52 AM 64.9 °F 60.1 °F 84% 29.92 in 10.0 mi South 9.2 mph - 0.00 in   Overcast
11:52 AM 69.1 °F 61.0 °F 75% 29.91 in 10.0 mi SSE 18.4 mph 23.0 mph N/A   Scattered Clouds
12:52 PM 72.0 °F 62.1 °F 71% 29.91 in 10.0 mi South 13.8 mph 19.6 mph N/A   Mostly Cloudy
1:52 PM 73.9 °F 62.1 °F 66% 29.90 in 10.0 mi South 13.8 mph - N/A   Clear
2:52 PM 75.0 °F 62.1 °F 64% 29.89 in 10.0 mi South 12.7 mph - N/A   Partly Cloudy
3:52 PM 77.0 °F 64.9 °F 66% 29.88 in 10.0 mi SSE 12.7 mph 20.7 mph N/A   Scattered Clouds
4:52 PM 75.9 °F 64.9 °F 69% 29.88 in 10.0 mi South 15.0 mph - N/A   Mostly Cloudy
5:52 PM 77.0 °F 64.9 °F 66% 29.86 in 10.0 mi SSE 15.0 mph - N/A   Clear
6:52 PM 77.0 °F 66.0 °F 69% 29.86 in 10.0 mi South 17.3 mph - N/A   Clear
7:52 PM 75.9 °F 64.9 °F 69% 29.88 in 10.0 mi South 13.8 mph - N/A   Clear
8:52 PM 72.0 °F 64.9 °F 78% 29.89 in 10.0 mi South 9.2 mph - N/A   Clear
9:52 PM 70.0 °F 64.0 °F 81% 29.91 in 10.0 mi South 9.2 mph - N/A   Clear
10:52 PM 66.9 °F 64.0 °F 90% 29.94 in 10.0 mi South 5.8 mph - N/A   Clear
11:52 PM 66.9 °F 64.0 °F 90% 29.94 in 9.0 mi South 6.9 mph - N/A   Clear